#timestamp,LO_Frequency,Hit,StdDev 
1669669215.4,286047000.9,N
1669669235.3,286047000.8,N
1669669255.1,286047001.1,N
1669669275.9,286046998.5,N
1669669295.7,286047001.1,N
1669669315.5,286047000.9,N
1669669335.4,286046998.5,N
1669669355.2,286046998.6,N
1669669375.0,286046998.2,N
1669669375.9,286046998.2,N
1669669395.8,286047000.7,N
1669669415.6,286047000.6,N
1669669435.5,286046998.6,N
1669669455.3,286046998.3,N
1669669475.1,286046999.9,N
1669669495.9,286046998.7,N
1669669515.7,286046999.8,N
1669669535.5,286047001.1,N
1669669555.4,286047000.4,N
1669669575.2,286046999.9,N
1669669595.1,286046999.7,N
1669669596.0,286046999.7,N
1669669615.8,286047002.4,N
1669669635.6,286047000.4,N
1669669655.5,286047002.4,N
1669669675.3,286047002.8,N
1669669695.1,286046998.1,N
1669669715.9,286047001.1,N
1669669735.7,286046999.8,N
1669669755.6,286047000.6,N
1669669775.4,286046998.9,N
1669669795.2,286046999.4,N
1669669815.1,286046998.4,N
1669669816.0,286046998.4,N
1669669835.8,286047000.9,N
1669669855.6,286047000.2,N
1669669875.5,286047002.3,N
1669669895.3,286047002.2,N
1669669915.2,286047002.6,N
1669669935.9,286047000.4,N
1669669955.7,286047002.2,N
1669669975.6,286047000.2,N
1669669995.4,286047002.4,N
1669670015.2,286047002.7,N
1669670035.1,286046999.9,N
1669670036.0,286046999.9,N
1669670055.8,286046999.8,N
1669670075.7,286047000.6,N
1669670095.5,286046999.9,N
1669670115.3,286047000.6,N
1669670135.2,286047000.8,N
1669670155.0,286047000.6,N
1669670155.9,286047000.6,N
1669670175.7,286047000.2,N
1669670195.6,286047000.1,N
1669670215.4,286046999.7,N
1669670235.3,286047002.0,N
1669670255.1,286047001.7,N
1669670256.0,286047001.7,N
1669670275.8,286047003.0,N
1669670295.7,286047001.5,N
1669670315.5,286047002.0,N
1669670335.4,286047001.7,N
1669670355.2,286046999.7,N
1669670375.0,286047002.3,N
1669670375.9,286047002.3,N
1669670395.8,286047001.4,N
1669670415.6,286047001.9,N
1669670435.4,286046999.7,N
1669670455.3,286047002.1,N
1669670475.1,286047002.4,N
1669670495.9,286047002.1,N
1669670515.7,286046999.9,N
1669670535.5,286046999.9,N
1669670555.4,286047002.3,N
1669670575.2,286047000.2,N
1669670595.0,286047000.3,N
1669670595.9,286047000.3,N
1669670615.8,286047002.2,N
1669670635.6,286047001.9,N
1669670655.5,286046999.8,N
1669670675.9,286047002.7,N
1669670695.7,286047001.6,N
1669670715.6,286047001.7,N
1669670735.4,286047002.5,N
1669670755.2,286047004.3,Y
1669670775.1,286047002.7,P
1669670776.0,286047002.7,P
1669670795.8,286047002.1,P
1669670815.7,286047002.0,Y
1669670835.5,286046999.6,P
1669670855.4,286046997.6,N
1669670875.2,286046996.6,N
1669670895.0,286046997.1,N
1669670895.9,286046997.1,N
1669670915.8,286046997.5,N
1669670935.6,286046998.0,N
1669670955.4,286046997.0,N
1669670975.3,286046998.2,N
1669670995.1,286046999.4,N
1669671015.9,286046999.1,N
1669671035.7,286046999.0,N
1669671055.5,286046999.0,N
1669671075.4,286046998.3,N
1669671095.2,286046997.0,N
1669671115.1,286046998.8,N
1669671116.0,286046998.8,N
1669671135.8,286046998.8,N
1669671155.6,286047000.8,N
1669671175.5,286047000.4,N
1669671195.3,286047002.8,N
1669671215.1,286046999.8,N
1669671235.9,286047000.4,N
1669671255.7,286047000.8,N
1669671275.6,286046996.5,N
1669671295.4,286046994.9,Y
1669671315.2,286046999.0,P
1669671335.1,286047001.2,P
1669671336.0,286047001.2,N
1669671355.8,286046999.2,N
1669671375.6,286046999.2,N
1669671395.5,286046998.6,N
1669671415.3,286047000.3,N
1669671435.2,286046999.9,N
1669671455.9,286046999.8,N
1669671475.7,286047002.6,N
1669671495.6,286047002.2,N
1669671515.4,286047002.0,N
1669671535.2,286046999.8,N
1669671555.1,286046999.9,N
1669671556.0,286046999.9,N
1669671575.8,286047000.1,N
1669671595.7,286046999.9,N
1669671615.5,286047002.3,N
1669671635.3,286047002.4,N
1669671655.2,286047001.3,N
1669671675.0,286047001.7,N
1669671675.9,286047001.7,N
1669671695.8,286047002.1,N
1669671715.6,286047000.2,N
1669671735.4,286047002.7,N
1669671755.3,286047002.2,N
1669671775.1,286047003.2,N
1669671795.8,286047003.9,N
1669671815.7,286047003.1,N
1669671835.5,286047005.5,Y
1669671855.4,286047005.9,P
1669671875.2,286047002.9,N
1669671895.0,286047003.9,N
1669671895.9,286047003.9,N
1669671915.8,286047001.5,N
1669671935.6,286046999.8,N
1669671955.4,286046999.8,N
1669671975.3,286047000.1,N
1669671995.1,286046998.1,N
1669672015.9,286047000.6,N
1669672035.7,286047000.3,N
1669672055.5,286046998.2,N
1669672075.4,286047001.0,N
1669672095.2,286047000.9,N
1669672115.0,286047000.9,N
1669672116.0,286047000.9,N
1669672135.8,286047000.3,N
1669672155.6,286047002.8,N
1669672175.5,286046999.8,N
1669672195.3,286046998.5,N
1669672215.1,286047000.9,N
1669672235.9,286046998.3,N
1669672255.7,286046999.1,N
1669672275.6,286046997.1,N
1669672295.4,286046998.9,N
1669672315.2,286046998.5,N
1669672335.1,286046999.3,N
1669672336.0,286046999.3,N
1669672355.8,286046999.3,N
1669672375.7,286046998.5,N
1669672395.5,286047000.3,N
1669672415.3,286046999.8,N
1669672435.2,286047001.9,N
1669672455.0,286047002.2,N
1669672455.9,286047002.2,N
1669672475.8,286047001.7,N
1669672495.6,286047002.6,N
1669672515.4,286047001.7,N
1669672535.3,286047001.6,N
1669672555.1,286047002.3,N
1669672575.8,286047002.2,N
1669672595.7,286047002.1,N
1669672615.5,286047000.1,N
1669672635.4,286047001.0,N
1669672655.2,286047000.5,N
1669672675.0,286047002.2,N
1669672675.9,286047002.2,N
1669672695.8,286046999.7,N
1669672715.6,286046999.9,N
1669672735.4,286046999.7,N
1669672755.3,286047000.5,N
1669672775.1,286047000.9,N
1669672795.9,286047000.4,N
